The Dalles, WA

2:32 PM PDT on October 20, 2019 (GMT -0700)
Columbia Gorge Regional-The Dalles

Weather History for KDLS - May, 2019

Change the Weather History Date:

Wednesday, May 22, 2019

  Actual Average Record
Temperature  
Mean Temperature 64 °F -  
Max Temperature 73 °F 75 °F 99 °F (2001)
Min Temperature 55 °F 49 °F 33 °F (1960)
Degree Days  
Heating Degree Days 1    
Growing Degree Days 14 (Base 50)    
Moisture  
Dew Point 50 °F    
Average Humidity 62    
Maximum Humidity 77    
Minimum Humidity 44    
Precipitation  
Precipitation 0.00 in - - ()
Sea Level Pressure  
Sea Level Pressure 29.89 in    
Wind  
Wind Speed 15 mph (NW)    
Max Wind Speed 20 mph    
Max Gust Speed 26 mph    
Visibility 10 miles    
Events      
Averages and records for this station are not official NWS values.
T = Trace of Precipitation, MM = Missing Value Source: NWS Daily Summary

Daily Weather History Graph

Daily Weather History Graph

Search for Another Location

Airport or City:

Astronomy

May. 22, 2019 Rise Set
Actual Time 5:26 AM PDT 8:36 PM PDT
Civil Twilight 4:50 AM PDT 9:12 PM PDT
Nautical Twilight 4:04 AM PDT 9:59 PM PDT
Astronomical Twilight 3:08 AM PDT 10:56 PM PDT
Moon No Moon Rise 8:37 AM PDT (5/22)
Length of Visible Light 16h 21m
Length of Day
15h 10m
Waning Gibbous, 84% of the Moon is Illuminated
May 22
Waning Gibbous
May 26
Last Quarter
Jun 3
New
Jun 9
First Quarter
Jun 17
Full

Hourly Weather History & Observations

Time (PDT) Temp. Dew Point Humidity Pressure Visibility Wind Dir Wind Speed Gust Speed Precip Events Conditions
12:53 AM 55.9 °F 48.9 °F 77% 29.80 in 10.0 mi NW 13.8 mph - N/A   Overcast
1:53 AM 57.0 °F 48.0 °F 72% 29.81 in 10.0 mi NW 15.0 mph - N/A   Overcast
2:53 AM 57.0 °F 46.9 °F 69% 29.82 in 10.0 mi NW 18.4 mph 25.3 mph N/A   Overcast
3:53 AM 57.0 °F 46.9 °F 69% 29.83 in 10.0 mi NW 18.4 mph - N/A   Overcast
4:53 AM 57.0 °F 46.9 °F 69% 29.84 in 10.0 mi NW 19.6 mph 26.5 mph N/A   Overcast
5:53 AM 57.0 °F 46.9 °F 69% 29.85 in 10.0 mi NW 15.0 mph 26.5 mph N/A   Partly Cloudy
6:53 AM 57.0 °F 48.0 °F 72% 29.88 in 10.0 mi NW 15.0 mph - N/A   Clear
7:53 AM 59.0 °F 48.9 °F 69% 29.88 in 10.0 mi NNW 18.4 mph - N/A   Clear
8:53 AM 62.1 °F 48.9 °F 62% 29.89 in 10.0 mi NNW 17.3 mph 25.3 mph N/A   Clear
9:53 AM 64.9 °F 50.0 °F 58% 29.89 in 10.0 mi NNW 19.6 mph 25.3 mph N/A   Clear
10:53 AM 68.0 °F 50.0 °F 52% 29.88 in 10.0 mi NNW 17.3 mph - N/A   Mostly Cloudy
11:53 AM 71.1 °F 50.0 °F 47% 29.89 in 10.0 mi NNW 16.1 mph - N/A   Mostly Cloudy
12:53 PM 69.1 °F 48.9 °F 49% 29.88 in 10.0 mi NNW 15.0 mph - N/A   Overcast
1:53 PM 73.0 °F 50.0 °F 44% 29.89 in 10.0 mi NNW 12.7 mph - N/A   Mostly Cloudy
2:53 PM 70.0 °F 50.0 °F 49% 29.90 in 10.0 mi NNW 17.3 mph - N/A   Overcast
3:53 PM 68.0 °F 50.0 °F 52% 29.91 in 10.0 mi NNW 12.7 mph - N/A   Overcast
4:53 PM 69.1 °F 50.0 °F 51% 29.92 in 10.0 mi NNW 12.7 mph - N/A   Overcast
5:53 PM 68.0 °F 52.0 °F 56% 29.93 in 10.0 mi NNW 11.5 mph - N/A   Overcast
6:53 PM 66.9 °F 52.0 °F 59% 29.93 in 10.0 mi NW 13.8 mph - N/A   Mostly Cloudy
7:53 PM 64.9 °F 52.0 °F 63% 29.94 in 10.0 mi NW 12.7 mph - N/A   Partly Cloudy
8:53 PM 64.0 °F 51.1 °F 63% 29.94 in 10.0 mi NW 6.9 mph 18.4 mph N/A   Partly Cloudy
9:53 PM 62.1 °F 51.1 °F 67% 29.95 in 10.0 mi NW 9.2 mph - N/A   Clear
10:53 PM 61.0 °F 52.0 °F 72% 29.96 in 10.0 mi NNW 10.4 mph - N/A   Partly Cloudy
11:53 PM 60.1 °F 51.1 °F 72% 29.96 in 10.0 mi NW 8.1 mph - N/A   Mostly Cloudy